GW5624 Weather Reports


time (UTC)temp
F
wind
direction
speed
knots
gust
knots
rain 1hr
in
rain 24hr
in
rain mn
in
humidity
%
barometer
mb
20260502151522 48 288 6.1 13.0 0.00 0.00 0.00 44 1014.1
20260502123026 42 123 1.7 2.6 0.00 0.00 0.00 64 1014.0
20260502121510 41 204 0.0 0.9 0.00 0.00 0.00 68 1013.8
20260502114520 39 213 0.0 0.9 0.00 0.00 0.00 75 1013.9
20260502113025 38 106 0.0 1.7 0.00 0.00 0.00 76 1013.7
20260502111526 37 240 0.0 0.9 0.00 0.00 0.00 77 1013.6
20260502110014 38 99 0.0 1.7 0.00 0.00 0.00 75 1013.5
20260502104520 38 292 0.9 2.6 0.00 0.00 0.00 73 1013.5
20260502103053 38 289 0.9 3.5 0.00 0.00 0.00 75 1013.8
20260502101528 38 255 0.0 1.7 0.00 0.00 0.00 74 1013.6
20260502091522 39 302 0.0 1.7 0.00 0.00 0.00 74 1013.9
20260502071526 41 5 0.9 7.0 0.00 0.00 0.00 71 1013.7
20260502070022 40 288 1.7 2.6 0.00 0.00 0.00 70 1013.8
20260502064525 41 332 0.0 7.0 0.00 0.00 0.00 65 1013.6
20260502063026 42 306 0.9 2.6 0.00 0.00 0.00 65 1013.7
20260502061529 42 304 0.9 1.7 0.00 0.00 0.00 67 1013.7
20260502060015 43 312 0.9 4.3 0.00 0.00 0.00 69 1013.7
20260502054521 44 338 1.7 5.2 0.00 0.00 0.00 67 1013.8
20260502053024 44 20 2.6 8.7 0.00 0.00 0.00 67 1014.0
20260502051527 45 347 3.5 7.0 0.00 0.00 0.00 68 1013.9
20260502050012 45 30 1.7 7.8 0.00 0.00 0.00 68 1014.0
20260502044519 45 339 1.7 4.3 0.00 0.00 0.00 68 1014.0
20260502043028 46 321 5.2 9.6 0.00 0.00 0.00 68 1014.1
20260502041529 46 358 5.2 9.6 0.00 0.00 0.00 70 1014.0
20260502040028 46 284 2.6 7.8 0.00 0.00 0.00 72 1014.0
20260502034518 46 221 0.0 8.7 0.00 0.00 0.00 72 1014.1
20260502033018 46 345 1.7 11.3 0.00 0.00 0.00 70 1013.9
20260502031524 46 341 2.6 10.4 0.00 0.00 0.00 69 1013.9
20260502030028 46 13 4.3 9.6 0.00 0.00 0.00 68 1013.7
20260502024527 46 199 3.5 9.6 0.00 0.00 0.00 67 1013.6
20260502023015 47 353 4.3 13.9 0.00 0.00 0.00 67 1013.5
20260502021521 47 38 3.5 18.2 0.00 0.00 0.00 67 1013.1
20260502020026 48 340 5.2 13.0 0.00 0.00 0.00 65 1012.9
20260502014527 49 353 6.1 13.9 0.00 0.00 0.00 68 1012.5
20260502013030 49 347 7.0 13.0 0.00 0.00 0.00 68 1012.5
20260502011529 49 23 8.7 17.4 0.00 0.00 0.00 68 1012.2
20260502010025 50 12 4.3 13.9 0.00 0.00 0.00 69 1012.1
20260502004526 50 360 5.2 13.0 0.00 0.00 0.00 69 1011.9
20260502003029 51 59 5.2 10.4 0.00 0.00 0.00 66 1011.5
20260502001530 52 29 4.3 11.3 0.00 0.00 0.00 65 1011.1
20260502000029 53 18 2.6 10.4 0.00 0.00 0.00 62 1010.8
20260501234522 54 11 3.5 13.9 0.00 0.00 0.00 60 1010.4
20260501233027 55 323 6.1 13.9 0.00 0.00 0.00 55 1009.9
20260501231526 56 281 4.3 11.3 0.00 0.00 0.00 51 1010.1
20260501230014 57 300 5.2 13.9 0.00 0.00 0.00 48 1010.0
20260501224521 60 11 3.5 13.0 0.00 0.00 0.00 43 1009.9
20260501223033 61 270 5.2 10.4 0.00 0.00 0.00 38 1009.9
20260501221531 60 228 2.6 8.7 0.00 0.00 0.00 37 1009.6
20260501220028 61 273 4.3 9.6 0.00 0.00 0.00 35 1009.6
20260501214527 62 326 4.3 10.4 0.00 0.00 0.00 32 1009.7
20260501213021 63 309 3.5 12.2 0.00 0.00 0.00 33 1009.6
20260501211524 64 231 3.5 9.6 0.00 0.00 0.00 34 1009.5
20260501210036 63 295 3.5 13.0 0.00 0.00 0.00 31 1009.5
20260501204509 64 294 6.1 16.5 0.00 0.00 0.00 32 1009.6
20260501203025 64 264 6.1 13.9 0.00 0.00 0.00 31 1009.5
20260501201524 64 179 3.5 11.3 0.00 0.00 0.00 28 1009.4
20260501200024 64 252 5.2 17.4 0.00 0.00 0.00 26 1009.5
20260501194508 63 245 2.6 10.4 0.00 0.00 0.00 30 1009.8
20260501193011 64 139 2.6 9.6 0.00 0.00 0.00 33 1009.9
20260501191516 64 139 5.2 13.0 0.00 0.00 0.00 34 1010.2
20260501190022 64 150 4.3 15.6 0.00 0.00 0.00 35 1010.3
20260501184526 64 231 4.3 8.7 0.00 0.00 0.00 37 1010.5
20260501183011 62 235 1.7 7.0 0.00 0.00 0.00 39 1010.6
20260501181513 62 290 4.3 8.7 0.00 0.00 0.00 35 1010.8
20260501180021 62 245 5.2 10.4 0.00 0.00 0.00 36 1011.1
20260501174524 61 98 3.5 10.4 0.00 0.00 0.00 39 1011.4
20260501173029 60 243 4.3 12.2 0.00 0.00 0.00 40 1011.6
20260501171511 60 280 5.2 8.7 0.00 0.00 0.00 41 1011.6
20260501170015 59 130 3.5 8.7 0.00 0.00 0.00 43 1011.9
20260501164522 58 150 4.3 11.3 0.00 0.00 0.00 43 1012.3
20260501163026 57 253 1.7 16.5 0.00 0.00 0.00 52 1012.5
20260501161526 56 124 3.5 9.6 0.00 0.00 0.00 46 1012.7
20260501160020 56 266 5.2 8.7 0.00 0.00 0.00 43 1012.8